Previsão horária em Barrancas

Hoje, 20 Outubro, Terça-feira

Tempo Temperatura Precipitação Vento Pressão Humidade
00:00 +25°C° 0.7 mm 1 m/s 743 mmHg 94%
01:00 +25°C° 0.7 mm 1 m/s 743 mmHg 94%
02:00 +25°C° 0.1 mm 1 m/s 742 mmHg 94%
03:00 +25°C° 0.1 mm 1 m/s 742 mmHg 94%
04:00 +25°C° 0.1 mm 1 m/s 742 mmHg 94%
05:00 +25°C° 0.1 mm 1 m/s 743 mmHg 94%
06:00 +26°C° 0.1 mm 1 m/s 743 mmHg 93%
07:00 +26°C° 0.1 mm 1 m/s 744 mmHg 92%
08:00 +27°C° 0.1 mm 1 m/s 744 mmHg 87%
09:00 +29°C° 0.1 mm 1 m/s 744 mmHg 82%
10:00 +30°C° 0.1 mm 1 m/s 745 mmHg 76%
11:00 +30°C° 0.9 mm 1 m/s 744 mmHg 79%
12:00 +30°C° 0.9 mm 1 m/s 743 mmHg 81%
13:00 +30°C° 0.9 mm 1 m/s 743 mmHg 84%
14:00 +30°C° 1.9 mm 1 m/s 742 mmHg 87%
15:00 +29°C° 1.9 mm 1 m/s 742 mmHg 89%
16:00 +28°C° 1.9 mm 1 m/s 742 mmHg 92%
17:00 +27°C° 0.4 mm 1 m/s 742 mmHg 93%
18:00 +25°C° 0.4 mm 0 m/s 742 mmHg 95%
19:00 +24°C° 0.4 mm 0 m/s 743 mmHg 96%
20:00 +24°C° 0 mm 0 m/s 743 mmHg 96%
21:00 +23°C° 0 mm 0 m/s 744 mmHg 95%
22:00 +23°C° 0 mm 0 m/s 744 mmHg 95%
23:00 +23°C° 0 mm 0 m/s 744 mmHg 95%

Amanhã, 21 Outubro, Quarta-feira

Tempo Temperatura Precipitação Vento Pressão Humidade
00:00 +23°C° 0 mm 0 m/s 744 mmHg 95%
01:00 +23°C° 0 mm 0 m/s 743 mmHg 94%
02:00 +22°C° 0 mm 0 m/s 743 mmHg 94%
03:00 +22°C° 0 mm 0 m/s 743 mmHg 94%
04:00 +24°C° 0 mm 1 m/s 743 mmHg 94%
05:00 +25°C° 0 mm 1 m/s 744 mmHg 92%
06:00 +26°C° 0 mm 1 m/s 744 mmHg 91%
07:00 +26°C° 0 mm 1 m/s 745 mmHg 89%
08:00 +29°C° 0 mm 1 m/s 745 mmHg 80%
09:00 +31°C° 0 mm 1 m/s 745 mmHg 71%
10:00 +33°C° 0 mm 1 m/s 745 mmHg 61%
11:00 +33°C° 0.3 mm 1 m/s 745 mmHg 64%
12:00 +34°C° 0.3 mm 2 m/s 744 mmHg 66%
13:00 +34°C° 0.3 mm 2 m/s 743 mmHg 68%
14:00 +32°C° 2 mm 2 m/s 743 mmHg 75%
15:00 +31°C° 2 mm 1 m/s 742 mmHg 83%
16:00 +29°C° 2 mm 1 m/s 742 mmHg 90%
17:00 +28°C° 0.9 mm 1 m/s 742 mmHg 91%
18:00 +28°C° 0.9 mm 1 m/s 743 mmHg 93%
19:00 +27°C° 0.9 mm 1 m/s 743 mmHg 95%
20:00 +27°C° 0 mm 1 m/s 744 mmHg 95%
21:00 +24°C° 0 mm 0 m/s 744 mmHg 95%
22:00 +24°C° 0 mm 0 m/s 744 mmHg 95%
23:00 +24°C° 0 mm 0 m/s 744 mmHg 95%

Depois de amanhã, 22 Outubro, Quinta-feira

Tempo Temperatura Precipitação Vento Pressão Humidade
00:00 +24°C° 0 mm 0 m/s 743 mmHg 94%
01:00 +26°C° 0 mm 1 m/s 743 mmHg 94%
02:00 +23°C° 0 mm 0 m/s 743 mmHg 93%
03:00 +23°C° 0 mm 0 m/s 742 mmHg 92%
04:00 +23°C° 0 mm 0 m/s 742 mmHg 92%
05:00 +24°C° 0 mm 0 m/s 743 mmHg 90%
06:00 +24°C° 0 mm 0 m/s 743 mmHg 89%
07:00 +25°C° 0 mm 0 m/s 744 mmHg 88%
08:00 +29°C° 0 mm 1 m/s 744 mmHg 81%
09:00 +31°C° 0 mm 1 m/s 744 mmHg 73%
10:00 +33°C° 0 mm 1 m/s 744 mmHg 65%
11:00 +33°C° 0 mm 1 m/s 744 mmHg 64%
12:00 +34°C° 0 mm 1 m/s 743 mmHg 62%
13:00 +34°C° 0 mm 1 m/s 742 mmHg 61%
14:00 +33°C° 0.6 mm 1 m/s 742 mmHg 67%
15:00 +32°C° 0.6 mm 1 m/s 742 mmHg 73%
16:00 +31°C° 0.6 mm 1 m/s 741 mmHg 80%
17:00 +30°C° 1 mm 1 m/s 742 mmHg 85%
18:00 +28°C° 1 mm 1 m/s 742 mmHg 90%
19:00 +25°C° 1 mm 0 m/s 743 mmHg 96%
20:00 +25°C° 2.7 mm 0 m/s 743 mmHg 96%
21:00 +24°C° 2.7 mm 0 m/s 743 mmHg 96%
22:00 +24°C° 2.7 mm 0 m/s 743 mmHg 96%
23:00 +24°C° 1 mm 0 m/s 743 mmHg 96%

23 Outubro, Sexta-feira

Tempo Temperatura Precipitação Vento Pressão Humidade
00:00 +26°C° 1 mm 1 m/s 743 mmHg 96%
01:00 +26°C° 1 mm 1 m/s 743 mmHg 96%
02:00 +24°C° 0.1 mm 0 m/s 743 mmHg 95%
03:00 +23°C° 0.1 mm 0 m/s 742 mmHg 95%
04:00 +23°C° 0.1 mm 0 m/s 742 mmHg 94%
05:00 +24°C° 0 mm 0 m/s 743 mmHg 94%
06:00 +24°C° 0 mm 0 m/s 743 mmHg 93%
07:00 +25°C° 0 mm 0 m/s 744 mmHg 93%
08:00 +29°C° 0 mm 1 m/s 744 mmHg 83%
09:00 +31°C° 0 mm 1 m/s 744 mmHg 74%
10:00 +33°C° 0 mm 1 m/s 744 mmHg 65%
11:00 +34°C° 0.3 mm 1 m/s 743 mmHg 66%
12:00 +34°C° 0.3 mm 1 m/s 742 mmHg 67%
13:00 +35°C° 0.3 mm 2 m/s 742 mmHg 68%
14:00 +33°C° 2.5 mm 1 m/s 741 mmHg 75%
15:00 +31°C° 2.5 mm 1 m/s 741 mmHg 82%
16:00 +30°C° 2.5 mm 1 m/s 740 mmHg 88%
17:00 +27°C° 1.4 mm 0 m/s 741 mmHg 90%
18:00 +26°C° 1.4 mm 0 m/s 741 mmHg 92%
19:00 +25°C° 1.4 mm 0 m/s 742 mmHg 94%
20:00 +25°C° 1 mm 0 m/s 742 mmHg 94%
21:00 +24°C° 1 mm 0 m/s 743 mmHg 94%
22:00 +24°C° 1 mm 0 m/s 743 mmHg 94%
23:00 +24°C° 0.3 mm 0 m/s 743 mmHg 95%

24 Outubro, Sábado

Tempo Temperatura Precipitação Vento Pressão Humidade
00:00 +26°C° 0.3 mm 1 m/s 743 mmHg 95%
01:00 +26°C° 0.3 mm 1 m/s 742 mmHg 96%
02:00 +25°C° 0.1 mm 1 m/s 742 mmHg 95%
03:00 +25°C° 0.1 mm 1 m/s 742 mmHg 95%
04:00 +25°C° 0.1 mm 1 m/s 743 mmHg 95%
05:00 +26°C° 0.1 mm 1 m/s 743 mmHg 94%
06:00 +26°C° 0.1 mm 1 m/s 743 mmHg 94%
07:00 +27°C° 0.1 mm 1 m/s 744 mmHg 94%
08:00 +28°C° 0 mm 1 m/s 744 mmHg 86%
09:00 +30°C° 0 mm 1 m/s 744 mmHg 79%
10:00 +32°C° 0 mm 1 m/s 745 mmHg 71%
11:00 +32°C° 0.3 mm 1 m/s 744 mmHg 71%
12:00 +33°C° 0.3 mm 1 m/s 743 mmHg 72%
13:00 +33°C° 0.3 mm 1 m/s 742 mmHg 72%
14:00 +32°C° 1.5 mm 1 m/s 742 mmHg 78%
15:00 +29°C° 1.5 mm 0 m/s 741 mmHg 84%
16:00 +28°C° 1.5 mm 0 m/s 741 mmHg 90%
17:00 +27°C° 1 mm 0 m/s 741 mmHg 91%
18:00 +26°C° 1 mm 0 m/s 742 mmHg 93%
19:00 +25°C° 1 mm 0 m/s 742 mmHg 94%
20:00 +25°C° 0.6 mm 0 m/s 743 mmHg 94%
21:00 +24°C° 0.6 mm 0 m/s 743 mmHg 95%
22:00 +24°C° 0.6 mm 0 m/s 743 mmHg 95%
23:00 +24°C° 0.9 mm 0 m/s 743 mmHg 95%

25 Outubro, Domingo

Tempo Temperatura Precipitação Vento Pressão Humidade
00:00 +26°C° 0.9 mm 1 m/s 743 mmHg 96%
01:00 +26°C° 0.9 mm 1 m/s 743 mmHg 96%
02:00 +26°C° 4.8 mm 1 m/s 743 mmHg 97%
03:00 +25°C° 4.8 mm 1 m/s 743 mmHg 97%
04:00 +25°C° 4.8 mm 1 m/s 743 mmHg 98%
05:00 +25°C° 5.2 mm 1 m/s 743 mmHg 98%
06:00 +25°C° 5.2 mm 2 m/s 744 mmHg 97%
07:00 +25°C° 5.2 mm 2 m/s 744 mmHg 97%
08:00 +26°C° 0 mm 1 m/s 744 mmHg 92%
09:00 +28°C° 0 mm 1 m/s 745 mmHg 87%
10:00 +29°C° 0 mm 1 m/s 745 mmHg 81%
11:00 +29°C° 0.1 mm 1 m/s 744 mmHg 79%
12:00 +30°C° 0.1 mm 1 m/s 744 mmHg 77%
13:00 +31°C° 0.1 mm 1 m/s 743 mmHg 74%
14:00 +30°C° 0.2 mm 1 m/s 743 mmHg 78%
15:00 +30°C° 0.2 mm 1 m/s 743 mmHg 81%
16:00 +29°C° 0.2 mm 1 m/s 742 mmHg 85%
17:00 +28°C° 0.5 mm 1 m/s 743 mmHg 88%
18:00 +27°C° 0.5 mm 1 m/s 743 mmHg 92%
19:00 +24°C° 0.5 mm 0 m/s 744 mmHg 96%
20:00 +24°C° 0 mm 0 m/s 744 mmHg 95%
21:00 +24°C° 0 mm 0 m/s 744 mmHg 95%
22:00 +23°C° 0 mm 0 m/s 744 mmHg 94%
23:00 +23°C° 0.7 mm 0 m/s 744 mmHg 95%

26 Outubro, Segunda-feira

Tempo Temperatura Precipitação Vento Pressão Humidade
00:00 +23°C° 0.7 mm 0 m/s 744 mmHg 95%
01:00 +23°C° 0.7 mm 0 m/s 744 mmHg 96%
02:00 +23°C° 0.9 mm 0 m/s 743 mmHg 96%
03:00 +23°C° 0.9 mm 0 m/s 743 mmHg 96%
04:00 +23°C° 0.9 mm 0 m/s 743 mmHg 97%
05:00 +23°C° 1.1 mm 0 m/s 744 mmHg 97%
06:00 +24°C° 1.1 mm 0 m/s 744 mmHg 97%
07:00 +24°C° 1.1 mm 0 m/s 745 mmHg 96%
08:00 +25°C° 0.4 mm 0 m/s 745 mmHg 93%
09:00 +26°C° 0.4 mm 0 m/s 745 mmHg 89%
10:00 +29°C° 0.4 mm 1 m/s 745 mmHg 86%
11:00 +30°C° 0.1 mm 1 m/s 745 mmHg 81%
12:00 +31°C° 0.1 mm 1 m/s 744 mmHg 75%
13:00 +32°C° 0.1 mm 1 m/s 743 mmHg 70%
14:00 +31°C° 0.7 mm 1 m/s 743 mmHg 76%
15:00 +30°C° 0.7 mm 1 m/s 743 mmHg 82%
16:00 +30°C° 0.7 mm 1 m/s 742 mmHg 88%
17:00 +28°C° 0.6 mm 1 m/s 743 mmHg 91%
18:00 +27°C° 0.6 mm 1 m/s 743 mmHg 93%
19:00 +26°C° 0.6 mm 1 m/s 744 mmHg 95%
20:00 +26°C° 0 mm 1 m/s 744 mmHg 95%
21:00 +25°C° 0 mm 1 m/s 744 mmHg 95%
22:00 +25°C° 0 mm 1 m/s 744 mmHg 95%
23:00 +25°C° 0 mm 1 m/s 744 mmHg 95%
Mostrar mais